weather.gov     
National Weather Service

Terminal Aerodrome Forecast
NWS Homepage
This page is being discontinued on March 12, 2014.
The same data is available at this site. Please update your bookmarks.
Thank you, and we apologize for the inconvenience.
Please send an email to SR-SRH.Webmaster@noaa.gov with any concerns.


Current Version
Previous Version:    01  02  03  04  05  06  07  08  09  10  11  12  13  14  15  16  17  18  19  20  21  22  23  24  25  26  27  28  29  30  
   31  32  33  34  35  36  37  
[Printable]
139
FTUS42 KJAX 281700
TAFJAX
TAF
KJAX 281733Z 2818/2918 27011G18KT P6SM SCT035 SCT250
     FM281900 26010G16KT P6SM VCSH BKN035 BKN250
      TEMPO 2819/2823 VRB15G25KT 5SM SHRA BKN030
     FM290200 25008KT P6SM VCSH FEW015 BKN035 BKN250
     FM291300 29010KT P6SM VCSH SCT015 SCT080 SCT250=


U.S. Dept. of Commerce
NOAA National Weather Service
1325 East West Highway
Silver Spring, MD 20910
E-mail: w-nws.webmaster@noaa.gov
Page last modified: May 16, 2007
NATIONAL WEATHER SERVICE: for Safety, for Work, for Fun - FOR LIFE